Location: B?dargowo
(53.3916°N, 14.4413°E)
Time: 05:18:15
(UTC+00:00)

Cosmos 2315 Rocket - Pass Details

Date: 05 February 2023
Orbit: 965 x 1002 km, 82.9° (Epoch: 24 March)

Event Time Altitude Azimuth Distance (km) Brightness Sun altitude
Rises 17:59:44 0° 166° (SSE) 3,699 6.9 -19.1°
Reaches altitude 10° 18:02:19 10° 161° (SSE) 2,758 6.2 -19.5°
Maximum altitude 18:08:19 47° 90° (E) 1,311 4.2 -20.4°
Drops below altitude 10° 18:14:23 10° 19° (NNE) 2,788 6.2 -21.3°
Sets 18:17:01 0° 14° (NNE) 3,743 6.9 -21.7°
